User: anonymous   Login
Location: Newark
(18.4314°N, 64.6231°W)
Time: 02:45:07
(UTC+00:00)
Language:

OTV 5 (USA 277) - Orbit

View from above orbital plane
View from above orbital plane
View from above satellite
View from above satellite

Ground track
Ground track

The orbit data is extracted from the following two-line orbital elements,

1 42932U 17052A   19232.07352836 0.00000000  00000-0  00000-0 0    09
2 42932  54.5145 259.1111 0017292 119.6845 240.3154 15.84697448    06
Epoch (UTC): 20 August 2019 01:45:52
Eccentricity: 0.0017292
inclination: 54.5145°
perigee height: 305 km
apogee height: 329 km
right ascension of ascending node: 259.1111°
argument of perigee: 119.6845°
revolutions per day: 15.84697448
mean anomaly at epoch: 240.3154°
orbit number at epoch: 0

The dashed part of the orbit path shows where the satellite is in the earth's shadow,  

DLR